Location: Zlin
(49.2330°N, 17.6670°E)
Time: 01:32:21
(UTC+01:00)

ISS - Visible Passes

Search period start: 01 November 2014 00:00
Search period end: 11 November 2014 00:00
Orbit: 412 x 417 km, 51.6° (Epoch: 31 October)

Date Brightness Start Highest point End Pass type
(mag) Time Alt. Az. Time Alt. Az. Time Alt. Az.
08 Nov -0.3 06:10:36 10° S 06:12:53 18° SE 06:15:11 10° E visible
09 Nov 0.0 05:22:38 10° SSE 05:23:40 11° SE 05:24:42 10° ESE visible
10 Nov -1.6 06:07:15 10° SW 06:10:19 35° SSE 06:13:24 10° E visible
